Printer-friendly version
Follow the MPC on Twitter Follow the MPC on Facebook The MPC blog
Minor Planet Center

MPEC 2003-D25 : COMET C/2002 Y1 (JUELS-HOLVORCEM)

The following Minor Planet Electronic Circular may be linked-to from your own Web pages, but must not otherwise be redistributed electronically.

A form allowing access to any MPEC is at the bottom of this page.


Read MPEC 2003-D24 Read MPEC 2003-D26


M.P.E.C. 2003-D25                                Issued 2003 Feb. 26, 22:18 UT

     The Minor Planet Electronic Circulars contain information on unusual
         minor planets and routine data on comets.  They are published
   on behalf of Commission 20 of the International Astronomical Union by the
          Minor Planet Center, Smithsonian Astrophysical Observatory,
                          Cambridge, MA 02138, U.S.A.

             Prepared using the Tamkin Foundation Computer Network

                              MPC@CFA.HARVARD.EDU
          URL http://cfa-www.harvard.edu/iau/mpc.html  ISSN 1523-6714

                       COMET C/2002 Y1 (JUELS-HOLVORCEM)

Observations:
    CK02Y010   2002 12 30.82104 13 28 39.16 +17 46 32.2          16.5 T      372
    CK02Y010   2003 01 05.73437 13 41 13.32 +20 33 06.5                      372
    CK02Y010   2003 01 09.78090 13 50 55.22 +22 50 36.5          16.5 T      372
    CK02Y010   2003 01 13.86320 14 01 54.74 +25 32 04.6          15.5 T      372
    CK02Y010  C2003 02 11.76495 16 59 40.17 +55 43 42.4          12.3 N      A18
    CK02Y010  C2003 02 11.93074 17 01 47.12 +55 53 38.8          11.8 N      A18
    CK02Y010  C2003 02 13.92025 17 28 32.83 +57 42 50.7          11.8 N      A18
    CK02Y010  C2003 02 13.92318 17 28 35.44 +57 43 00.5          11.6 N      A18
    CK02Y010  C2003 02 15.01786 17 44 26.05 +58 34 26.9                      A46
    CK02Y010  C2003 02 15.01863 17 44 26.71 +58 34 28.6                      A46
    CK02Y010  C2003 02 15.01942 17 44 27.33 +58 34 30.9                      A46
    CK02Y010  C2003 02 15.02019 17 44 28.01 +58 34 33.0                      A46
    CK02Y010  C2003 02 15.02097 17 44 28.78 +58 34 34.9                      A46
    CK02Y010  C2003 02 15.02175 17 44 29.45 +58 34 36.6                      A46
    CK02Y010  C2003 02 15.02252 17 44 30.17 +58 34 39.1                      A46
    CK02Y010  C2003 02 15.02331 17 44 30.87 +58 34 41.2                      A46
    CK02Y010  C2003 02 15.02409 17 44 31.50 +58 34 42.9                      A46
    CK02Y010  C2003 02 15.02486 17 44 32.20 +58 34 45.2                      A46
    CK02Y010  C2003 02 15.02565 17 44 32.94 +58 34 47.4                      A46
    CK02Y010  C2003 02 15.02642 17 44 33.57 +58 34 49.3                      A46
    CK02Y010  C2003 02 15.02720 17 44 34.26 +58 34 51.8                      A46
    CK02Y010  C2003 02 16.07060 18 00 19.46 +59 17 11.4          12.8 N      213
    CK02Y010  C2003 02 16.07137 18 00 20.19 +59 17 13.3          12.8 N      213
    CK02Y010  C2003 02 16.07226 18 00 20.94 +59 17 15.0          12.8 N      213
    CK02Y010  C2003 02 18.38434 18 36 59.51 +60 25 29.9          10.7 N      H43
    CK02Y010  C2003 02 18.38528 18 37 00.46 +60 25 31.5          10.7 N      H43
    CK02Y010  C2003 02 18.38637 18 37 01.42 +60 25 32.8          10.9 N      H43
    CK02Y010  C2003 02 19.04044 18 47 39.87 +60 37 58.9          13.9 N      636
    CK02Y010  C2003 02 19.04264 18 47 42.03 +60 38 01.2          13.9 N      636
    CK02Y010  C2003 02 19.04485 18 47 44.15 +60 38 03.7          13.9 N      636
    CK02Y010  C2003 02 19.20938 18 50 25.37 +60 40 48.9                      143
    CK02Y010  C2003 02 19.21077 18 50 26.70 +60 40 50.0                      143
    CK02Y010  C2003 02 19.21124 18 50 27.17 +60 40 50.6                      143
    CK02Y010  C2003 02 19.21217 18 50 28.13 +60 40 51.4                      143
    CK02Y010  C2003 02 19.21310 18 50 29.01 +60 40 52.5                      143
    CK02Y010  C2003 02 19.73503 18 59 00.07 +60 47 54.4          11.2 T      049
    CK02Y010  C2003 02 19.73575 18 59 00.67 +60 47 54.0          11.1 T      049
    CK02Y010  C2003 02 19.73800 18 59 03.10 +60 47 54.5          11.6 T      049
    CK02Y010  C2003 02 19.74056 18 59 05.70 +60 47 56.1          11.7 T      049
    CK02Y010  C2003 02 19.74224 18 59 07.34 +60 47 57.5          11.7 T      049
    CK02Y010  C2003 02 20.79149 19 16 16.78 +60 56 16.8          10.8 N      A18
    CK02Y010  C2003 02 20.80329 19 16 28.57 +60 56 21.3          10.9 N      A18
    CK02Y010  C2003 02 21.77624 19 32 14.89 +60 57 04.5          10.9 N      A18
    CK02Y010  C2003 02 21.77693 19 32 15.85 +60 57 03.3          10.8 N      A18
    CK02Y010  C2003 02 22.00998 19 36 01.44 +60 56 19.2          11.8 T      174
    CK02Y010  C2003 02 22.01797 19 36 09.04 +60 56 17.2          11.7 T      174
    CK02Y010  C2003 02 22.02694 19 36 17.76 +60 56 14.8          11.7 T      174
    CK02Y010  C2003 02 22.76881 19 48 04.32 +60 51 12.7          10.9 N      A18
    CK02Y010  C2003 02 22.77523 19 48 10.47 +60 51 09.0          10.9 N      A18
    CK02Y010  C2003 02 22.96276 19 51 08.36 +60 49 17.6                      048
    CK02Y010  C2003 02 22.96299 19 51 08.59 +60 49 17.3                      048
    CK02Y010  C2003 02 22.96322 19 51 08.79 +60 49 17.4                      048
    CK02Y010  C2003 02 22.96345 19 51 09.02 +60 49 16.9                      048
    CK02Y010  C2003 02 22.96369 19 51 09.23 +60 49 17.0                      048
    CK02Y010  C2003 02 22.96392 19 51 09.44 +60 49 16.7                      048
    CK02Y010  C2003 02 22.96415 19 51 09.72 +60 49 16.8                      048
    CK02Y010  C2003 02 22.96437 19 51 09.90 +60 49 16.5                      048
    CK02Y010  C2003 02 22.96461 19 51 10.11 +60 49 16.6                      048
    CK02Y010  C2003 02 22.96483 19 51 10.34 +60 49 16.3                      048
    CK02Y010  C2003 02 24.13871 20 09 15.59 +60 32 52.3                      048
    CK02Y010  C2003 02 24.13894 20 09 15.74 +60 32 52.0                      048
    CK02Y010  C2003 02 24.13917 20 09 15.96 +60 32 51.8                      048
    CK02Y010  C2003 02 24.13940 20 09 16.16 +60 32 51.6                      048
    CK02Y010  C2003 02 24.13964 20 09 16.40 +60 32 51.4                      048
    CK02Y010  C2003 02 24.13987 20 09 16.64 +60 32 51.2                      048
    CK02Y010  C2003 02 24.14010 20 09 16.85 +60 32 50.8                      048
    CK02Y010  C2003 02 24.14033 20 09 17.08 +60 32 50.7                      048
    CK02Y010  C2003 02 24.14056 20 09 17.27 +60 32 50.4                      048
    CK02Y010  C2003 02 24.14079 20 09 17.46 +60 32 50.2                      048
    CK02Y010  C2003 02 24.95873 20 21 26.81 +60 16 31.8                      048
    CK02Y010  C2003 02 24.95896 20 21 26.96 +60 16 31.4                      048
    CK02Y010  C2003 02 24.95920 20 21 27.29 +60 16 30.9                      048
    CK02Y010  C2003 02 24.95945 20 21 27.51 +60 16 31.1                      048
    CK02Y010  C2003 02 24.95969 20 21 27.77 +60 16 30.4                      048
    CK02Y010  C2003 02 24.95992 20 21 28.01 +60 16 29.6                      048
    CK02Y010  C2003 02 24.96016 20 21 28.01 +60 16 29.9                      048
    CK02Y010  C2003 02 24.96039 20 21 28.26 +60 16 29.8                      048
    CK02Y010  C2003 02 24.96062 20 21 28.46 +60 16 29.2                      048
    CK02Y010  C2003 02 24.96085 20 21 28.84 +60 16 28.5                      048
    CK02Y010  C2003 02 25.95675 20 35 44.10 +59 51 56.8                      048
    CK02Y010  C2003 02 25.95701 20 35 44.29 +59 51 56.1                      048
    CK02Y010  C2003 02 25.95726 20 35 44.52 +59 51 55.8                      048
    CK02Y010  C2003 02 25.95752 20 35 44.72 +59 51 55.3                      048
    CK02Y010  C2003 02 25.95777 20 35 44.96 +59 51 54.8                      048
    CK02Y010  C2003 02 25.95803 20 35 45.13 +59 51 54.6                      048
    CK02Y010  C2003 02 25.95828 20 35 45.38 +59 51 53.9                      048
    CK02Y010  C2003 02 25.95854 20 35 45.62 +59 51 53.7                      048
    CK02Y010  C2003 02 25.95879 20 35 45.80 +59 51 52.8                      048
    CK02Y010  C2003 02 25.95905 20 35 46.06 +59 51 52.5                      048
    CK02Y010  C2003 02 25.96472 20 35 50.82 +59 51 43.8                      048
    CK02Y010  C2003 02 25.96497 20 35 51.02 +59 51 43.4                      048
    CK02Y010  C2003 02 25.96523 20 35 51.22 +59 51 43.0                      048
    CK02Y010  C2003 02 25.96549 20 35 51.47 +59 51 42.3                      048
    CK02Y010  C2003 02 25.96576 20 35 51.67 +59 51 42.0                      048

Observer details:
048 Hradec Kralove.  Observers M. Lehky, M. Broz.  0.40-m f/5 reflector + CCD.
049 Uppsala-Kvistaberg.  Observers B. Davidsson, O. Karlsson, C.-I. Lagerkvist,
    T. Oja, J. Warell.  Measurers B. Davidsson, G. Hahn, O. Karlsson,
    C.-I. Lagerkvist, S. Mottola, J. Warell.  1.0-m Schmidt + CCD.
143 Gnosca.  Observer S. Sposetti.  0.40-m f/4 reflector + CCD.
174 Nyrola Observatory, Jyvaskyla.  Observer A. Oksanen.  0.40-m f/5
    Schmidt-Cassegrain + CCD.
213 Observatorio Montcabre.  Observer R. Naves.  Measurer M. Campas.  0.30-m
    f/5.5 Schmidt-Cassegrain + CCD.
372 Geisei.  Observer T. Seki.  0.60-m f/3.5 reflector.
636 Essen.  Observers A. Knofel, T. Payer, M. Frohlich.  0.32-m f/5.7
    reflector + CCD.
A18 Herne.  Observer B. Brinkmann.  0.2 m f/5.8 Schmidt-Cassegrain + CCD.
A46 Lelekovice.  Observer K. Hornoch.  0.35-m f/4.7 reflector + CCD.
H43 Conway.  Observers P. C. Sherrod, B. M. Sherrod.  0.31-m f/3.75
    Schmidt-Cassegrain + CCD.

Orbital elements:
    C/2002 Y1 (Juels-Holvorcem)
Epoch 2003 May 1.0 TT = JDT 2452760.5
T 2003 Apr. 13.25170 TT                                 MPC
q   0.7137193            (2000.0)            P               Q
z  +0.0041607      Peri.  128.82509     +0.65310573     +0.72106073
 +/-0.0000526      Node   166.21904     -0.27262486     -0.06114174
e   0.9970305      Incl.  103.78122     +0.70649033     -0.69016890
From 487 observations 2002 Dec. 29-2003 Feb. 25, mean residual 0".57.

     The "original" and "future" barycentric values of 1/a are +0.004291
and +0.004685 (+/- 0.000053) AU**-1, respectively.

Brian G. Marsden             (C) Copyright 2003 MPC           M.P.E.C. 2003-D25

Read MPEC 2003-D24 Read MPEC 2003-D26


MPEC number:

Enter an MPEC number in one of the following forms:

  • 1997-B01 (the full form)
  • J97B01 (the packed version of the full form)
  • B01 (the abbreviated form)

Valid HTML 4.01!